Flag for U.S.A. Weather past 2 weeks in Atascadero, California, U.S.A.

Now
62 °F

Clear.


Feels Like: 62 °F
Forecast: 59 / 90 °F
Wind: No wind

Location: Paso Robles Municipal Airport

Current Time: Jul 25, 2014 at 5:15:07 AM

Latest Report: Jul 25, 2014 at 4:53 AM


Visibility: 10 mi

Pressure: 29.83 "Hg

Humidity: 58%

Dew point: 47 °F

Location of AtascaderoLocation

Historic Weather in Atascadero — Graph

°F

Atascadero temperature yesterday

Maximum temperature yesterday: 100 °F (at 4:53 PM)
Minimum temperature yesterday: 61 °F (at 5:53 AM)
Average temperature yesterday: 78 °F

Past Weeks' High & Low Weather Summary

 TemperatureHumidityPressure
High105 °F (Jul 13, 4:53 PM)90% (Jul 11, 3:53 AM)30.13 "Hg (Jul 11, 3:53 AM)
Low55 °F (Jul 23, 5:53 AM)10% (Jul 13, 4:53 PM)29.75 "Hg (Jul 24, 5:53 PM)
Average71 °F58%29.96 "Hg
* Reported Jul 10 3:53 AM — Jul 25 3:53 AM, Atascadero, Weather by CustomWeather, © 2014

Note: Actual official high and low records may vary slightly from our data, if they occured in-between our weather recording intervals... More about our weather records

Advertising

Atascadero weather history for previous 24 hours

 ConditionsComfort  
Time TempWeatherWind HumidityBarometerVisibility
3:53 AM
Jul 25
65 °FClear.No wind56%29.82 "Hg10 mi
2:53 AM66 °FClear.No wind54%29.82 "Hg10 mi
1:53 AM68 °FClear.No wind51%29.83 "Hg10 mi
12:53 AM72 °FClear.5 mph44%29.84 "Hg10 mi
11:53 PM
Jul 24
73 °FClear.8 mph43%29.84 "Hg10 mi
10:53 PM74 °FClear.13 mph45%29.83 "Hg10 mi
9:53 PM76 °FClear.14 mph40%29.82 "Hg10 mi
8:53 PM80 °FSunny.15 mph30%29.80 "Hg10 mi
7:53 PM86 °FSunny.12 mph25%29.78 "Hg10 mi
6:53 PM94 °FSunny.10 mph20%29.76 "Hg10 mi
5:53 PM100 °FSunny.8 mph15%29.75 "Hg10 mi
4:53 PM100 °FSunny.6 mph15%29.78 "Hg10 mi
3:53 PM99 °FSunny.No wind18%29.80 "Hg10 mi
2:53 PM97 °FSunny.3 mph19%29.83 "Hg10 mi
1:53 PM94 °FSunny.5 mph24%29.85 "Hg10 mi
12:53 PM91 °FSunny.3 mph28%29.88 "Hg10 mi
11:53 AM87 °FSunny.5 mph31%29.91 "Hg10 mi
10:53 AM81 °FSunny.5 mph39%29.94 "Hg10 mi
9:53 AM75 °FSunny.6 mph50%29.97 "Hg10 mi
8:53 AM69 °FSunny.9 mph61%29.98 "Hg10 mi
7:53 AM65 °FSunny.6 mph68%29.99 "Hg10 mi
6:53 AM61 °FClear.3 mph75%29.99 "Hg10 mi
5:53 AM61 °FClear.3 mph75%29.98 "Hg10 mi
Weather by CustomWeather, © 2014

See weather overviewHow to use our weather pages